Location: Dürabuch
(48.2640°N, 11.2185°E)
Time: 03:14:21
(UTC+00:00)

Cosmos 1346 Rocket - Pass Details

Date: 23 May 2024
Orbit: 508 x 521 km, 81.2° (Epoch: 19 June)

Event Time Altitude Azimuth Distance (km) Brightness Sun altitude
Rises 00:40:15 0° 341° (NNW) 2,661 7.1 -18.3°
Reaches altitude 10° 00:42:29 10° 334° (NNW) 1,768 6.0 -18.2°
Maximum altitude 00:46:07 39° 265° (W) 795 3.4 -17.9°
Enters shadow 00:46:41 37° 242° (WSW) 833 3.3 -17.9°
